sat.trackr.live / text

‹ back to catalog

STARLINK-36555

NORAD 67497 · 2026-012E

PAYLOAD ACTIVE UNKNOWN

§ Identity

Operator
Country
US
Launch date
2026-01-18
Launch site
AFETR
Launch vehicle
Mass (kg)
RCS (m²)

Purposes: comms

External: N2YO · Heavens-Above · Gunter

§ Orbital elements

Epoch: 2026-09-19T03:08:37.440960Z

Period
94.27 min
Inclination
43.0009°
Eccentricity
0.0000587
Mean motion
15.27586273 rev/d
Perigee alt
482.6 km
Apogee alt
483.4 km
Semi-major
6,861.2 km
B*
4.0678e-4
RAAN
302.1770°
Arg perigee
251.8298°
Mean anomaly
108.2490°
Rev number
3,734

§ Raw data

STARLINK-365551 67497U 26012E   26262.13098890  .00010951  00000+0  40678-3 0  99932 67497  43.0009 302.1770 0000587 251.8298 108.2490 15.27586273 37343

JSON: /api/v1/satellites/67497 · /tle

For live sub-satellite position, see the globe view (requires WebGL).

§ Visibility from observer

Set your observer location to see the next 7 days of passes ≥ 10°. The values pass through the URL so the page stays shareable.

No JS? Fill the form by hand. The geolocation button needs JavaScript.